Flag for U.S.A. Weather past 2 weeks in Cupertino, California, U.S.A.

Now
56 °F

Sunny.


Feels Like: 56 °F
Forecast: 50 / 56 °F
Wind: 3 mph from Southeast

Location: Moffett Field

Current Time: Dec 17, 2014 at 12:02:30 PM

Latest Report: Dec 17, 2014 at 10:56 AM


Visibility: 10 mi

Pressure: 30.11 "Hg

Humidity: 84%

Dew point: 51 °F

Location of CupertinoLocation

Historic Weather in Cupertino — Graph

°F

Cupertino temperature yesterday

Maximum temperature yesterday: 62 °F (at 1:56 PM)
Minimum temperature yesterday: 51 °F (at 12:56 AM)
Average temperature yesterday: 54 °F

Past Weeks' High & Low Weather Summary

 TemperatureHumidityPressure
High69 °F (Dec 6, 1:56 PM)100% (Dec 2, 10:56 AM)30.24 "Hg (Dec 2, 10:56 AM)
Low43 °F (Dec 13, 6:56 AM)53% (Dec 8, 2:56 PM)29.57 "Hg (Dec 11, 7:56 AM)
Average57 °F87%29.99 "Hg
* Reported Dec 2 10:56 AM — Dec 17 10:56 AM, Cupertino, Weather by CustomWeather, © 2014

Note: Actual official high and low records may vary slightly from our data, if they occured in-between our weather recording intervals... More about our weather records

Advertising

Cupertino weather history for previous 24 hours

 ConditionsComfort  
Time TempWeatherWind HumidityBarometerVisibility
10:56 AM
Dec 17
56 °FSunny.3 mph84%30.11 "Hg10 mi
9:56 AM53 °FPassing clouds.6 mph89%30.10 "Hg10 mi
8:56 AM50 °FPartly sunny.3 mph93%30.08 "Hg10 mi
7:56 AM49 °FScattered clouds.6 mph97%30.05 "Hg10 mi
6:56 AM49 °FOvercast.5 mph93%30.03 "Hg10 mi
5:56 AM49 °FLight rain. Mostly cloudy.No wind93%30.02 "Hg10 mi
4:56 AM49 °FPassing clouds.3 mph93%30.00 "Hg10 mi
3:56 AM48 °FPassing clouds.6 mph96%29.99 "Hg10 mi
2:56 AM49 °FPassing clouds.5 mph97%29.99 "Hg8 mi
1:56 AM50 °FPartly cloudy.3 mph93%29.98 "Hg8 mi
12:56 AM51 °FPassing clouds.3 mph92%29.96 "Hg9 mi
11:56 PM
Dec 16
51 °FPassing clouds.No wind92%29.96 "Hg10 mi
10:56 PM51 °FPassing clouds.No wind92%29.96 "Hg10 mi
9:56 PM52 °FOvercast.3 mph93%29.94 "Hg10 mi
9:04 PM52 °FLight rain. Mostly cloudy.7 mph100%29.91 "Hg9 mi
8:56 PM53 °FLight rain. Mostly cloudy.3 mph96%29.91 "Hg9 mi
7:56 PM53 °FLight rain. Overcast.6 mph93%29.89 "Hg10 mi
6:56 PM54 °FLight rain. Overcast.6 mph90%29.88 "Hg10 mi
5:56 PM55 °FPassing clouds.9 mph87%29.85 "Hg10 mi
4:56 PM56 °FLight rain. Mostly cloudy.9 mph84%29.85 "Hg10 mi
3:56 PM57 °FLight rain. Mostly cloudy.8 mph69%29.84 "Hg6 mi
2:56 PM60 °FScattered clouds.9 mph60%29.86 "Hg10 mi
1:56 PM62 °FSunny.9 mph56%29.87 "Hg10 mi
12:56 PM61 °FScattered clouds.14 mph58%29.89 "Hg10 mi
Weather by CustomWeather, © 2014

See weather overviewHow to use our weather pages